When you browse on this site, cookies collect data to enhance your experience and personalize the content and advertising you see.
Visit our Privacy Policy to learn more. By continuing to use the site, you agree to this use of cookies and data.
  • En España
  • Lista de países
  • Para 7 días
  • Temperatura del agua
  • El tiempo en el mapa
  • Informadores
  • user-avatar
    Iniciar sesión

    Tiempo cada hora La Massana

    Hoy, 18 Agosto, Domingo

    Tiempo Temperatura Precipitaciones Viento Presión Humedad
    00:00 +15°C° 0 mm 2 mps 612 mmHg 84%
    01:00 +15°C° 0 mm 2 mps 611 mmHg 82%
    02:00 +14°C° 0 mm 2 mps 611 mmHg 81%
    03:00 +14°C° 0 mm 2 mps 610 mmHg 79%
    04:00 +14°C° 0 mm 2 mps 610 mmHg 76%
    05:00 +15°C° 0 mm 2 mps 610 mmHg 72%
    06:00 +15°C° 0 mm 2 mps 611 mmHg 68%
    07:00 +18°C° 0 mm 2 mps 612 mmHg 57%
    08:00 +20°C° 0 mm 2 mps 614 mmHg 46%
    09:00 +24°C° 0 mm 2 mps 615 mmHg 35%
    10:00 +25°C° 0 mm 3 mps 615 mmHg 33%
    11:00 +25°C° 0 mm 3 mps 615 mmHg 31%
    12:00 +26°C° 0 mm 4 mps 616 mmHg 30%
    13:00 +26°C° 0 mm 4 mps 615 mmHg 30%
    14:00 +26°C° 0 mm 4 mps 615 mmHg 31%
    15:00 +26°C° 0 mm 4 mps 615 mmHg 32%
    16:00 +24°C° 0.3 mm 3 mps 614 mmHg 44%
    17:00 +20°C° 0.3 mm 2 mps 613 mmHg 55%
    18:00 +18°C° 0.3 mm 2 mps 613 mmHg 67%
    19:00 +17°C° 0.6 mm 2 mps 613 mmHg 75%
    20:00 +15°C° 0.6 mm 2 mps 612 mmHg 83%
    21:00 +14°C° 0.6 mm 2 mps 612 mmHg 91%
    22:00 +13°C° 0.2 mm 1 mps 612 mmHg 92%
    23:00 +13°C° 0.2 mm 1 mps 612 mmHg 93%

    Mañana, 19 Agosto, Lunes

    Tiempo Temperatura Precipitaciones Viento Presión Humedad
    00:00 +13°C° 0.2 mm 1 mps 612 mmHg 93%
    01:00 +13°C° 0 mm 1 mps 612 mmHg 93%
    02:00 +12°C° 0 mm 1 mps 612 mmHg 93%
    03:00 +12°C° 0 mm 1 mps 612 mmHg 93%
    04:00 +12°C° 0 mm 1 mps 612 mmHg 92%
    05:00 +11°C° 0 mm 0 mps 612 mmHg 91%
    06:00 +11°C° 0 mm 0 mps 613 mmHg 90%
    07:00 +14°C° 0 mm 1 mps 614 mmHg 83%
    08:00 +16°C° 0 mm 1 mps 614 mmHg 76%
    09:00 +18°C° 0 mm 1 mps 615 mmHg 69%
    10:00 +18°C° 0.3 mm 2 mps 616 mmHg 66%
    11:00 +19°C° 0.3 mm 2 mps 616 mmHg 62%
    12:00 +20°C° 0.3 mm 2 mps 616 mmHg 58%
    13:00 +19°C° 0.7 mm 2 mps 616 mmHg 62%
    14:00 +19°C° 0.7 mm 2 mps 615 mmHg 67%
    15:00 +18°C° 0.7 mm 2 mps 615 mmHg 71%
    16:00 +17°C° 0.5 mm 2 mps 614 mmHg 76%
    17:00 +16°C° 0.5 mm 1 mps 614 mmHg 80%
    18:00 +15°C° 0.5 mm 1 mps 614 mmHg 84%
    19:00 +14°C° 0.7 mm 1 mps 614 mmHg 86%
    20:00 +14°C° 0.7 mm 1 mps 614 mmHg 88%
    21:00 +13°C° 0.7 mm 1 mps 614 mmHg 90%
    22:00 +13°C° 0.2 mm 1 mps 614 mmHg 91%
    23:00 +12°C° 0.2 mm 0 mps 614 mmHg 91%

    Pasado mañana, 20 Agosto, Martes

    Tiempo Temperatura Precipitaciones Viento Presión Humedad
    00:00 +11°C° 0.2 mm 0 mps 614 mmHg 92%
    01:00 +11°C° 0.1 mm 0 mps 613 mmHg 93%
    02:00 +11°C° 0.1 mm 0 mps 613 mmHg 93%
    03:00 +11°C° 0.1 mm 0 mps 613 mmHg 94%
    04:00 +11°C° 1.1 mm 0 mps 613 mmHg 95%
    05:00 +12°C° 1.1 mm 1 mps 613 mmHg 96%
    06:00 +11°C° 1.1 mm 1 mps 614 mmHg 97%
    07:00 +11°C° 2.6 mm 1 mps 614 mmHg 96%
    08:00 +11°C° 2.6 mm 1 mps 614 mmHg 95%
    09:00 +11°C° 2.6 mm 1 mps 614 mmHg 94%
    10:00 +10°C° 6 mm 1 mps 614 mmHg 95%
    11:00 +9°C° 6 mm 2 mps 614 mmHg 95%
    12:00 +8°C° 6 mm 2 mps 614 mmHg 95%
    13:00 +8°C° 2.3 mm 2 mps 614 mmHg 93%
    14:00 +8°C° 2.3 mm 2 mps 614 mmHg 91%
    15:00 +9°C° 2.3 mm 1 mps 614 mmHg 88%
    16:00 +10°C° 0 mm 1 mps 614 mmHg 87%
    17:00 +10°C° 0 mm 2 mps 615 mmHg 85%
    18:00 +10°C° 0 mm 2 mps 615 mmHg 83%
    19:00 +9°C° 0 mm 2 mps 615 mmHg 86%
    20:00 +8°C° 0 mm 2 mps 615 mmHg 88%
    21:00 +7°C° 0 mm 2 mps 614 mmHg 90%
    22:00 +6°C° 0 mm 2 mps 614 mmHg 89%
    23:00 +6°C° 0 mm 2 mps 614 mmHg 89%

    21 Agosto, Miércoles

    Tiempo Temperatura Precipitaciones Viento Presión Humedad
    00:00 +6°C° 0 mm 2 mps 614 mmHg 88%
    01:00 +6°C° 0 mm 2 mps 613 mmHg 87%
    02:00 +5°C° 0 mm 2 mps 613 mmHg 85%
    03:00 +6°C° 0 mm 1 mps 613 mmHg 83%
    04:00 +7°C° 0 mm 1 mps 613 mmHg 79%
    05:00 +7°C° 0 mm 1 mps 613 mmHg 75%
    06:00 +8°C° 0 mm 1 mps 613 mmHg 70%
    07:00 +10°C° 0 mm 1 mps 615 mmHg 61%
    08:00 +13°C° 0 mm 1 mps 616 mmHg 51%
    09:00 +16°C° 0 mm 1 mps 617 mmHg 42%
    10:00 +18°C° 0 mm 1 mps 617 mmHg 41%
    11:00 +19°C° 0 mm 1 mps 617 mmHg 39%
    12:00 +20°C° 0 mm 1 mps 618 mmHg 37%
    13:00 +19°C° 0 mm 2 mps 617 mmHg 39%
    14:00 +19°C° 0 mm 2 mps 617 mmHg 42%
    15:00 +18°C° 0 mm 2 mps 617 mmHg 44%
    16:00 +18°C° 0 mm 1 mps 616 mmHg 53%
    17:00 +15°C° 0 mm 1 mps 615 mmHg 62%
    18:00 +14°C° 0 mm 1 mps 615 mmHg 71%
    19:00 +13°C° 0 mm 1 mps 614 mmHg 75%
    20:00 +11°C° 0 mm 1 mps 614 mmHg 80%
    21:00 +10°C° 0 mm 1 mps 614 mmHg 84%
    22:00 +10°C° 0 mm 1 mps 614 mmHg 81%
    23:00 +10°C° 0 mm 1 mps 614 mmHg 79%

    22 Agosto, Jueves

    Tiempo Temperatura Precipitaciones Viento Presión Humedad
    00:00 +9°C° 0 mm 1 mps 614 mmHg 76%
    01:00 +9°C° 0 mm 1 mps 613 mmHg 72%
    02:00 +9°C° 0 mm 1 mps 613 mmHg 68%
    03:00 +9°C° 0 mm 1 mps 613 mmHg 64%
    04:00 +9°C° 0 mm 1 mps 613 mmHg 59%
    05:00 +8°C° 0 mm 2 mps 613 mmHg 55%
    06:00 +8°C° 0 mm 2 mps 614 mmHg 51%
    07:00 +12°C° 0 mm 1 mps 615 mmHg 44%
    08:00 +15°C° 0 mm 1 mps 616 mmHg 37%
    09:00 +19°C° 0 mm 1 mps 618 mmHg 30%
    10:00 +20°C° 0 mm 1 mps 618 mmHg 29%
    11:00 +21°C° 0 mm 1 mps 618 mmHg 28%
    12:00 +22°C° 0 mm 1 mps 618 mmHg 26%
    13:00 +22°C° 0 mm 1 mps 618 mmHg 28%
    14:00 +21°C° 0 mm 2 mps 618 mmHg 30%
    15:00 +21°C° 0 mm 2 mps 617 mmHg 32%
    16:00 +20°C° 0 mm 1 mps 617 mmHg 43%
    17:00 +18°C° 0 mm 1 mps 616 mmHg 53%
    18:00 +15°C° 0 mm 0 mps 615 mmHg 63%
    19:00 +14°C° 0 mm 1 mps 615 mmHg 66%
    20:00 +13°C° 0 mm 1 mps 614 mmHg 69%
    21:00 +12°C° 0 mm 1 mps 614 mmHg 72%
    22:00 +11°C° 0 mm 1 mps 614 mmHg 73%
    23:00 +11°C° 0 mm 1 mps 614 mmHg 73%

    23 Agosto, Viernes

    Tiempo Temperatura Precipitaciones Viento Presión Humedad
    00:00 +11°C° 0 mm 1 mps 614 mmHg 74%
    01:00 +11°C° 0 mm 1 mps 613 mmHg 75%
    02:00 +11°C° 0 mm 1 mps 613 mmHg 76%
    03:00 +10°C° 0 mm 1 mps 613 mmHg 78%
    04:00 +11°C° 0 mm 1 mps 613 mmHg 77%
    05:00 +11°C° 0 mm 1 mps 613 mmHg 77%
    06:00 +11°C° 0 mm 1 mps 613 mmHg 77%
    07:00 +14°C° 0 mm 1 mps 614 mmHg 67%
    08:00 +18°C° 0 mm 1 mps 616 mmHg 56%
    09:00 +21°C° 0 mm 1 mps 617 mmHg 46%
    10:00 +22°C° 0 mm 1 mps 617 mmHg 42%
    11:00 +23°C° 0 mm 1 mps 617 mmHg 38%
    12:00 +24°C° 0 mm 2 mps 617 mmHg 34%
    13:00 +24°C° 0 mm 2 mps 617 mmHg 35%
    14:00 +23°C° 0 mm 2 mps 616 mmHg 37%
    15:00 +23°C° 0 mm 2 mps 616 mmHg 38%
    16:00 +21°C° 0 mm 1 mps 615 mmHg 45%
    17:00 +20°C° 0 mm 1 mps 615 mmHg 52%
    18:00 +16°C° 0 mm 0 mps 614 mmHg 60%
    19:00 +16°C° 0 mm 1 mps 614 mmHg 63%
    20:00 +14°C° 0 mm 1 mps 613 mmHg 66%
    21:00 +13°C° 0 mm 1 mps 613 mmHg 69%
    22:00 +13°C° 0 mm 1 mps 613 mmHg 69%
    23:00 +13°C° 0 mm 1 mps 613 mmHg 70%
    Mostrar más